Probability
0 0 0 0 0 0 0 0 0 0 0 0 0 0 3 10 0 0 0 0 0 0 0 0 0 0 0 0 0 19 58 61 65 42 26 6 0 0
0 0 0 0 0 0 0 0 0 0 0 0 0 0 0 0 0 0 0 0 0 0 0 0 0 0 0 0 10 3 3 3 3 0 0 0 0 0
0 0 0 0 0 0 0 0 0 0 0 0 0 0 0 0 0 0 0 0 0 0 0 0 0 0 0 0 0 0 0 0 0 0 0 0 0 0
0 0 0 0 0 0 0 0 0 0 0 0 0 0 0 0 0 0 0 0 0 0 0 0 0 0 0 0 0 0 0 0 0 0 0 0 0 0
0 0 0 0 0 0 0 0 0 0 0 0 0 0 0 0 0 0 0 0 0 0 0 0 0 0 0 0 0 0 0 0 0 0 0 0 0 0
0 0 0 0 0 0 0 0 0 0 0 0 0 0 0 0 0 0 0 0 0 0 0 0 0 0 0 0 0 0 0 0 0 0 0 0 0 0
0 0 0 0 0 0 0 0 0 0 0 0 0 0 0 0 0 0 0 0 0 0 0 0 0 0 0 0 0 0 0 0 0 0 0 0 0 0
0 0 0 0 0 0 0 0 0 0 0 0 0 0 0 0 0 0 0 0 0 0 0 0 0 0 0 0 0 0 0 0 0 0 0 0 0 0
0 0 0 0 0 0 0 0 0 0 0 0 0 0 0 0 0 0 0 0 0 0 0 0 0 0 0 0 0 0 0 0 0 0 0 0 0 0
0 0 0 0 0 0 0 0 0 0 0 0 0 0 0 0 0 0 0 0 0 0 0 0 0 0 0 0 0 0 0 0 0 0 0 0 0 0
0 0 0 0 0 0 0 0 0 0 0 0 0 0 0 0 0 0 0 0 0 0 0 0 0 0 0 0 0 0 0 0 0 0 0 0 0 0
0 0 0 0 0 0 0 0 0 0 0 0 0 0 0 0 0 0 0 0 0 0 0 0 0 0 0 0 0 0 0 0 0 0 0 0 0 0
0 0 0 0 0 0 0 0 0 0 0 0 0 0 0 0 0 0 0 0 0 0 0 0 0 0 0 0 0 0 0 0 0 0 0 0 0 0
0 0 0 0 0 0 0 0 0 0 0 0 0 0 0 0 0 0 0 0 0 0 0 0 0 0 0 0 0 0 0 0 0 0 0 0 0 0
0 0 0 0 0 0 0 0 0 0 0 0 0 0 0 0 0 0 0 0 0 0 0 0 0 0 0 0 0 0 0 0 0 0 0 0 0 0
0 0 0 0 0 0 0 0 0 0 0 0 0 0 0 0 0 0 0 0 0 0 0 0 0 0 0 0 0 0 0 0 0 0 0 0 0 0
0 0 0 0 0 0 0 0 0 0 0 0 0 0 0 0 0 0 0 0 0 0 0 0 0 0 0 0 0 0 0 0 0 0 0 0 0 0
0 0 0 0 0 0 0 0 0 0 0 0 0 0 0 0 0 0 0 0 0 0 0 0 0 0 0 0 0 0 0 0 0 0 0 0 0 0
0 0 0 0 0 0 0 0 0 0 0 0 0 0 0 0 0 0 0 0 0 0 0 0 0 0 0 0 0 0 0 0 0 0 0 0 0 0
0 0 0 0 0 0 0 0 0 0 0 0 0 0 0 0 0 0 0 0 0 0 0 0 0 0 0 0 0 0 0 0 0 0 0 0 0 0
0 0 0 0 0 0 0 0 0 0 0 0 0 0 0 0 0 0 0 0 0 0 0 0 0 0 0 0 0 0 0 0 0 0 0 0 0 0
0 0 0 0 0 0 0 0 0 0 0 0 0 0 0 0 0 0 0 0 0 0 0 0 0 0 0 0 0 0 0 0 0 0 0 0 0 0
0 0 0 0 0 0 0 0 0 0 0 0 0 0 0 0 0 0 0 0 0 0 0 0 0 0 0 0 0 0 0 0 0 0 0 0 0 0
Height
5585 5580 5576 5573 5569 5566 5564 5562 5559 5558 5559 5559 5559 5561 5563 5564 5565 5566 5568 5571 5573 5575 5579 5585 5592 5600 5609 5617 5625 5634 5641 5648 5654 5661 5667 5674 5681 5688
5572 5568 5565 5562 5559 5556 5554 5551 5549 5547 5546 5547 5546 5548 5550 5553 5555 5557 5560 5562 5564 5566 5569 5573 5579 5586 5594 5602 5610 5618 5625 5633 5640 5647 5655 5663 5670 5677
5563 5560 5556 5553 5550 5548 5545 5543 5541 5539 5538 5539 5538 5539 5542 5545 5548 5551 5554 5556 5558 5560 5563 5566 5571 5577 5584 5590 5597 5604 5611 5619 5627 5636 5644 5653 5660 5667
5555 5552 5549 5546 5543 5540 5538 5536 5534 5533 5533 5534 5534 5535 5537 5540 5543 5546 5549 5552 5555 5557 5559 5562 5565 5569 5573 5579 5584 5591 5600 5609 5619 5627 5636 5645 5652 5658
5546 5544 5542 5539 5536 5533 5531 5529 5528 5528 5528 5529 5530 5531 5533 5536 5539 5542 5546 5549 5552 5554 5556 5558 5559 5562 5566 5572 5578 5586 5595 5605 5614 5622 5631 5638 5645 5651
5539 5537 5535 5534 5531 5529 5526 5524 5522 5522 5523 5524 5525 5527 5529 5532 5536 5540 5543 5547 5550 5552 5554 5555 5557 5560 5565 5570 5578 5586 5595 5603 5611 5619 5627 5633 5640 5645
5536 5533 5531 5529 5527 5525 5522 5520 5518 5518 5518 5519 5521 5522 5524 5528 5533 5538 5542 5545 5548 5550 5553 5555 5557 5561 5566 5573 5580 5586 5593 5601 5609 5616 5623 5629 5634 5640
5534 5531 5528 5526 5524 5522 5519 5517 5515 5514 5515 5516 5517 5519 5521 5526 5531 5536 5540 5544 5546 5549 5551 5554 5558 5562 5568 5574 5582 5589 5596 5602 5609 5615 5621 5626 5631 5637
5531 5528 5525 5523 5522 5520 5517 5515 5513 5513 5514 5515 5516 5518 5521 5526 5530 5535 5539 5542 5545 5548 5551 5554 5557 5562 5568 5575 5583 5591 5598 5605 5610 5615 5619 5624 5629 5633
5528 5525 5522 5521 5520 5518 5516 5514 5512 5512 5513 5515 5517 5519 5522 5526 5530 5534 5538 5542 5545 5548 5552 5554 5558 5563 5570 5577 5584 5592 5598 5604 5609 5613 5618 5622 5627 5631
5525 5522 5519 5518 5517 5516 5515 5513 5511 5511 5512 5514 5517 5520 5523 5527 5530 5534 5539 5542 5546 5549 5553 5556 5560 5565 5572 5579 5586 5593 5598 5603 5608 5612 5617 5621 5624 5627
5520 5518 5516 5515 5514 5514 5514 5513 5511 5510 5511 5514 5518 5521 5524 5527 5530 5534 5539 5544 5548 5551 5554 5558 5563 5569 5575 5581 5588 5593 5598 5603 5607 5612 5616 5619 5622 5624
5515 5515 5513 5512 5512 5513 5513 5513 5512 5512 5513 5516 5519 5523 5526 5529 5532 5535 5540 5545 5550 5554 5558 5562 5567 5573 5580 5585 5590 5594 5599 5603 5607 5611 5614 5616 5619 5622
5510 5510 5510 5510 5510 5511 5512 5513 5513 5513 5515 5518 5521 5525 5529 5532 5535 5538 5542 5547 5552 5556 5561 5565 5570 5576 5581 5586 5590 5595 5599 5603 5606 5609 5611 5613 5617 5622
5504 5506 5507 5507 5508 5509 5511 5513 5515 5516 5517 5520 5524 5527 5531 5535 5538 5542 5546 5550 5555 5559 5563 5568 5573 5578 5582 5586 5590 5594 5598 5601 5604 5607 5610 5614 5618 5622
5500 5501 5503 5505 5507 5508 5511 5514 5516 5518 5520 5523 5526 5529 5533 5537 5541 5545 5549 5553 5558 5562 5566 5570 5575 5579 5583 5586 5590 5593 5596 5599 5603 5607 5611 5615 5619 5623
5496 5498 5500 5503 5505 5507 5510 5514 5517 5520 5522 5525 5528 5532 5535 5539 5543 5547 5551 5556 5560 5563 5567 5571 5575 5578 5581 5585 5588 5591 5595 5599 5604 5608 5612 5616 5620 5625
5494 5494 5497 5500 5503 5506 5509 5513 5517 5520 5523 5526 5530 5534 5537 5541 5545 5549 5552 5556 5560 5563 5567 5571 5574 5578 5581 5584 5587 5591 5596 5601 5605 5610 5614 5618 5622 5627
5492 5493 5494 5498 5501 5505 5508 5512 5515 5519 5522 5526 5530 5534 5538 5542 5546 5550 5554 5557 5560 5563 5567 5570 5574 5578 5582 5585 5588 5593 5598 5603 5607 5612 5616 5620 5624 5628
5492 5492 5493 5496 5499 5503 5507 5511 5514 5517 5520 5524 5528 5533 5537 5541 5546 5550 5553 5557 5560 5563 5567 5571 5575 5578 5582 5587 5592 5597 5601 5605 5609 5614 5619 5623 5626 5629
5492 5493 5494 5496 5498 5502 5506 5510 5514 5517 5520 5523 5527 5532 5536 5540 5545 5549 5553 5556 5560 5564 5568 5572 5576 5580 5585 5590 5595 5600 5604 5608 5613 5617 5621 5625 5628 5630
5494 5494 5494 5496 5498 5502 5506 5510 5514 5517 5520 5523 5527 5531 5535 5539 5544 5548 5552 5556 5560 5564 5569 5573 5577 5582 5587 5592 5597 5603 5607 5611 5614 5618 5621 5626 5628 5631
5495 5495 5495 5496 5498 5502 5506 5510 5514 5518 5521 5525 5528 5531 5535 5539 5544 5548 5552 5557 5561 5565 5570 5575 5580 5585 5589 5594 5599 5604 5609 5613 5616 5619 5622 5625 5628 5630
Wind_Speed
49 48 48 47 46 45 45 45 45 43 41 42 43 41 41 41 40 37 33 30 31 34 40 47 52 55 56 57 58 59 60 60 60 59 57 54 50 48
39 37 36 35 34 33 33 33 33 32 29 28 30 31 33 34 32 29 26 25 25 26 28 32 36 40 44 48 51 54 56 56 55 53 51 48 46 45
34 32 30 29 28 27 28 28 27 27 25 22 22 24 26 26 24 23 22 21 21 21 22 24 27 31 36 42 46 49 50 49 48 46 46 44 42 42
32 30 28 27 26 27 27 27 26 24 22 18 17 18 20 21 21 20 21 20 19 18 19 21 23 26 28 29 31 34 35 36 38 39 39 39 40 39
29 27 26 25 24 24 22 21 21 21 19 16 14 16 17 19 19 19 19 18 18 17 17 18 19 19 18 18 19 22 25 27 29 29 31 33 34 35
21 20 20 20 20 19 18 18 18 18 16 17 16 16 18 20 20 18 17 17 16 14 14 13 13 15 17 18 18 20 22 22 22 22 25 27 28 29
16 15 15 16 16 15 15 16 15 15 14 16 17 17 19 22 21 19 18 17 15 14 13 11 12 16 22 25 21 24 25 25 24 24 24 24 24 25
14 13 13 12 12 12 12 12 10 11 10 10 11 12 16 20 22 20 18 17 15 14 13 11 13 20 25 28 30 31 32 31 27 27 29 28 26 25
14 13 11 9 9 10 9 7 6 8 9 8 8 10 14 17 18 17 16 16 15 15 13 9 13 21 27 33 34 32 29 26 24 25 28 26 22 21
14 13 10 8 7 5 4 4 4 7 10 11 11 12 13 14 15 16 17 16 14 14 13 10 14 22 30 34 33 30 27 24 22 21 21 21 22 21
13 12 9 8 6 3 2 4 3 4 11 15 14 13 12 14 15 17 18 17 14 14 13 12 18 26 30 31 29 26 23 21 20 20 22 23 22 20
11 11 9 7 7 6 3 2 2 4 11 17 17 15 15 15 16 18 19 18 17 16 14 15 22 27 29 30 28 25 22 20 20 20 20 19 18 17
10 8 7 6 7 7 5 1 3 7 12 17 19 17 16 16 16 18 19 20 20 17 15 17 23 26 25 25 24 22 19 19 20 19 17 16 16 17
11 9 6 5 6 6 5 5 7 10 13 17 19 18 17 15 15 17 20 21 19 17 15 17 22 23 23 22 21 19 18 19 19 17 16 18 19 18
11 11 9 6 6 6 7 10 12 14 14 15 17 17 16 15 15 18 20 21 19 17 16 16 18 19 19 20 20 19 18 18 17 18 21 21 19 19
10 13 13 9 8 9 12 14 16 16 16 16 17 17 17 17 19 20 20 20 18 16 16 15 16 18 19 18 19 19 19 19 21 23 22 21 22 23
8 12 15 14 12 13 15 18 18 16 15 16 17 17 18 21 21 21 20 19 17 16 16 16 15 15 17 18 19 20 21 23 24 23 22 23 25 25
7 11 15 17 15 15 18 21 19 15 15 16 17 18 19 21 21 20 18 17 16 17 18 16 14 14 15 17 20 23 24 25 24 23 24 25 25 24
5 8 13 18 18 17 17 19 18 15 15 18 20 20 21 22 21 19 17 15 16 20 21 20 19 18 15 16 21 26 26 25 24 23 23 25 25 22
3 5 10 17 20 19 18 17 16 15 15 17 22 23 24 24 22 19 16 15 18 21 22 22 22 21 21 22 23 24 26 26 25 24 23 23 22 19
4 2 6 15 20 21 20 18 17 16 15 17 20 23 25 24 22 19 18 19 22 23 23 23 22 23 24 26 26 25 25 25 24 23 22 21 19 16
5 3 3 12 19 22 22 21 19 18 18 18 20 22 23 23 22 21 21 22 24 24 24 23 24 26 28 29 28 26 25 25 24 22 21 19 16 15
5 5 4 7 17 22 23 23 22 21 20 21 21 21 22 23 23 23 24 24 25 25 24 24 26 27 29 31 30 28 26 24 22 21 19 18 17 16
Wind_Direction
292 291 289 288 287 285 284 283 283 281 277 274 271 268 265 267 270 270 268 263 258 254 250 247 247 247 247 247 248 248 249 248 248 247 247 248 249 250
295 294 292 290 289 287 287 286 286 286 285 279 271 264 261 262 263 262 260 258 256 252 247 243 242 242 242 243 244 244 244 243 242 241 241 243 244 246
297 296 295 294 294 292 291 289 288 289 291 287 274 262 255 252 250 246 245 248 247 247 245 242 241 241 241 241 241 240 239 239 238 238 237 237 239 241
297 296 296 297 297 295 292 289 285 284 285 279 262 252 245 238 235 235 239 243 245 247 247 244 240 235 231 228 225 225 225 225 229 231 231 233 235 237
296 293 293 297 300 299 295 290 283 278 273 256 244 242 237 231 231 232 236 238 240 244 247 245 239 225 214 197 189 188 194 203 211 218 223 228 232 236
302 294 291 296 300 302 298 293 281 273 263 244 241 245 239 229 223 222 223 225 232 238 238 233 223 212 198 177 174 176 181 188 197 207 216 223 229 234
311 301 294 294 297 303 305 303 283 265 259 247 243 241 230 216 210 208 214 224 230 232 221 207 199 195 187 179 183 188 186 185 193 202 208 215 222 229
315 306 299 293 293 299 305 302 280 250 245 237 228 219 208 201 200 206 214 220 222 218 208 192 187 185 184 188 188 185 184 189 196 200 204 209 214 219
317 308 301 292 291 296 301 296 263 221 212 196 186 185 187 187 191 197 201 202 201 202 200 186 182 183 187 189 189 186 191 195 201 206 206 206 210 218
318 313 297 283 288 298 310 320 285 218 202 184 169 164 165 167 174 181 182 182 186 196 198 187 173 174 175 178 181 187 196 201 204 205 206 209 213 214
304 314 300 271 260 262 308 346 338 212 194 184 173 165 163 164 167 173 177 178 177 186 192 174 162 167 172 175 177 179 182 184 186 191 197 202 205 210
283 299 299 261 236 228 244 343 33 160 175 176 172 165 166 171 173 171 173 172 170 174 176 159 155 160 163 168 173 177 178 179 182 187 193 197 204 210
262 270 287 250 224 220 227 193 102 138 159 167 166 164 163 166 166 165 167 165 164 165 163 153 153 157 162 168 174 177 178 184 189 192 195 197 189 174
243 233 245 236 214 211 202 156 123 133 150 162 165 161 159 161 161 158 158 158 161 161 157 155 158 162 168 175 178 181 185 190 193 194 187 170 159 157
233 209 207 211 202 185 159 141 128 127 141 158 168 168 163 164 160 155 155 157 159 159 156 159 166 174 180 182 184 187 189 189 187 174 161 154 154 155
232 203 191 187 183 176 164 151 139 130 130 142 158 166 168 165 159 153 153 156 159 163 165 167 173 180 185 186 185 184 181 174 167 158 154 153 152 149
235 203 189 179 170 165 167 166 155 147 142 136 139 149 157 158 155 151 152 156 162 167 171 173 177 186 191 192 186 177 169 160 155 153 153 151 150 150
237 208 191 180 173 165 164 170 171 169 168 164 159 157 159 159 157 157 159 163 169 172 170 171 175 179 184 185 177 165 157 153 153 154 154 153 154 156
227 210 192 181 175 172 169 169 174 181 184 183 179 174 172 170 169 171 173 176 177 172 168 167 167 166 170 174 165 158 154 154 153 155 157 158 158 160
172 197 193 183 178 176 175 174 176 180 183 184 184 183 182 183 185 187 189 186 179 174 171 170 169 166 161 159 160 160 159 156 155 157 161 164 164 163
123 139 180 184 181 177 176 174 172 172 172 174 178 183 187 188 191 193 192 187 181 177 174 172 170 165 159 157 160 162 162 159 158 161 165 170 172 173
96 91 145 179 183 181 177 175 171 167 165 165 170 177 183 187 188 187 186 184 181 177 173 171 169 166 163 160 161 165 166 165 164 166 168 173 178 183
85 79 97 164 182 183 180 177 174 170 167 164 162 166 171 174 176 176 177 176 175 173 171 169 169 169 169 166 164 167 171 172 170 170 173 177 181 183